Powrót do katalogu

STARLINK-36079

AktywnyŁącznośćVLEO
NORAD 66897·PAYLOAD·🇺🇸 United States

Wystrzelony Dec 4, 2025 z Vandenberg Space Force Base

Loading…

Następne Przeloty (najbliższe 24 godziny)

TLE

ŚwieżeSource: CelesTrak SupGP

Epoka: Sep 15, 2026, 03:34 UTC

1 66897C 25283V   26258.14909722 -.00073036  00000+0 -21578-2 0  2586
2 66897  53.1573 220.9018 0001178  89.8065  32.1202 15.34428108    14

Śledź STARLINK-36079 w czasie rzeczywistym z AllMySat

Download on the App Store